Location: Apfeldorfhausen
(47.9052°N, 10.9418°E)
Time: 04:34:48
(UTC+00:00)

Daily predictions for brighter satellites

Satellite Brightness Start Highest point End
(mag) Time Altitude Azimuth Time Altitude Azimuth Time Altitude Azimuth
USA 59 Rocket 3.0 03:08:36 12° ESE 03:08:36 12° ESE 03:09:05 10° ESE
SL-16 R/B 3.7 03:19:10 30° NE 03:19:40 31° NE 03:24:39 10° ESE
Cosmos 2082 Rocket 3.2 03:23:08 41° ENE 03:23:08 41° ENE 03:27:01 10° NE
USA 234 3.9 03:23:21 10° ENE 03:28:36 43° N 03:28:36 43° N
Cosmos 1980 Rocket 4.3 03:44:55 15° S 03:44:55 15° S 03:45:47 10° S
Cosmos 2369 4.3 03:51:16 48° SSE 03:51:16 48° SSE 03:55:16 10° SSE
NOSS 3-1 (C) 3.9 03:52:30 59° NW 03:54:14 87° NE 04:03:04 10° SE
Cosmos 1726 Rocket 4.4 04:01:10 47° ESE 04:01:10 47° ESE 04:04:34 10° SSE
Cosmos 841 Rocket 3.6 04:00:24 59° SSE 04:01:14 71° ESE 04:06:29 10° NNE
SJ-11-01 4.4 04:01:16 10° NNE 04:05:59 70° ESE 04:10:37 10° S
COSMOS 2455 3.0 04:07:00 58° SSW 04:07:00 58° SSW 04:12:14 10° SSE
Cosmos 2360 Rocket 3.4 04:09:26 21° N 04:12:37 38° NE 04:17:49 10° ESE
Cosmos 2333 Rocket 2.8 04:11:00 30° N 04:13:44 54° ENE 04:19:21 10° SE
Cosmos 489 Rocket 4.4 04:08:32 10° SSW 04:14:50 85° ESE 04:21:09 10° NNE
Cosmos 1428 Rocket 4.5 04:11:14 10° S 04:17:28 83° E 04:23:47 10° N
Nadezhda 4 Rocket 3.9 04:11:49 10° S 04:18:09 83° W 04:24:27 10° N
ATLAS 3B R/B 4.3 04:14:24 20° NNW 04:18:14 29° NNE 04:24:49 10° ENE
Cosmos 1892 Rocket 3.9 04:18:42 10° S 04:23:01 63° E 04:27:23 10° NNE
Cosmos-2242 4.0 04:24:05 18° N 04:27:00 45° ENE 04:31:02 10° SSE
Cosmos 1898 Rocket 4.0 04:29:28 42° SW 04:29:28 42° SW 04:33:32 10° S
Cosmos 2219 Rocket 3.6 04:25:49 14° N 04:30:03 33° NE 04:35:06 10° ESE
COSMO-SKYMED 1 2.7 04:27:00 10° SSE 04:31:05 68° ENE 04:32:40 35° N
Cosmos 2195 Rocket 4.5 04:26:22 10° S 04:32:38 86° E 04:38:59 10° N
IRS-1D 3.4 04:28:46 10° NNE 04:33:48 88° ESE 04:38:54 10° SSW
Meteor 2-20 4.4 04:29:21 10° N 04:35:31 85° E 04:41:36 10° S
Cosmos 2322 Rocket 2.6 04:32:25 21° NNW 04:36:10 60° ENE 04:41:46 10° SE
SL-24 R/B 4.4 04:32:16 10° NNE 04:37:42 85° ESE 04:42:23 10° SSW
Orbus 7S? 3.7 04:48:21 34° NNE 04:48:21 34° NNE 04:50:44 10° E
Cosmos 1937 Rocket 3.8 04:49:25 41° W 04:49:51 42° WSW 04:54:38 10° S
Cosmos 858 Rocket 4.5 04:49:23 37° NW 04:51:11 57° WSW 04:56:14 10° S
BREEZE M DEB (TANK) 4.0 04:50:05 12° S 04:51:35 19° SE 04:54:03 10° E
USA 59 Rocket 1.5 04:54:18 21° SW 04:54:18 21° SW 04:57:20 10° S
Meteor 2-3 Rocket 3.7 04:48:19 10° SSW 04:54:00 66° WNW 04:59:40 10° N
BREEZE-M DEB (TANK) 3.3 04:55:04 32° E 04:55:04 32° E 04:56:18 10° ESE
Meteor 1-26 Rocket 4.1 04:49:52 10° NNW 04:55:25 86° W 05:01:07 10° S
Cosmos 1484 Rocket 3.4 04:52:39 10° NNE 04:56:00 49° E 04:59:16 10° S
Meteor 2-20 Rocket 4.2 04:51:29 10° N 04:57:17 88° E 05:02:59 10° S
Cosmos 2058 Rocket 2.9 04:54:41 17° NNW 04:58:08 79° W 05:02:31 10° S
SKYMED 2 3.9 04:55:24 10° S 04:59:31 42° W 05:00:14 39° WNW
COSMOS 2406 3.3 04:55:16 14° SW 05:00:05 54° WNW 05:05:40 10° NNE
NOSS 3-1 (A) 4.0 04:57:15 23° NW 05:02:16 80° SW 05:11:09 10° SSE
SL-16 R/B 2.3 05:01:03 26° NW 05:04:02 54° WSW 05:09:32 10° S
Cosmos 2082 Rocket 2.9 05:05:01 29° WNW 05:05:55 30° NW 05:10:51 10° NNE
Cosmos 1743 4.4 05:03:49 10° SSE 05:06:41 29° E 05:09:33 10° NNE
COSMOS 2428 4.5 05:02:14 10° N 05:06:57 26° NE 05:11:40 10° ESE
CZ-4 R/B 3.8 05:02:42 10° N 05:07:13 52° WNW 05:11:41 10° SW
SeaSat 1 4.2 05:05:43 10° N 05:07:30 15° NNW 05:07:30 15° NNW
Cosmos 1627 Rocket 4.4 05:02:43 10° SSW 05:08:46 65° WNW 05:14:55 10° N
USA 234 3.9 05:05:43 10° ENE 05:11:47 42° N 05:15:57 20° NW
BREEZE-M DEB (TANK) 2.5 05:12:02 45° W 05:12:43 70° NNW 05:14:58 10° ENE
Okean 1 2.9 05:11:24 23° NNW 05:13:25 62° W 05:16:55 10° S
Helios 1A Rocket 2.9 05:12:21 10° S 05:15:29 37° W 05:15:55 35° W
Cosmos 1814 Rocket 4.1 05:11:14 10° SSW 05:16:27 79° ESE 05:21:46 10° NNE
NOAA 12 4.3 05:12:29 10° N 05:17:31 46° WNW 05:22:30 10° SW
DMSP B5D1-3 4.4 05:13:59 10° S 05:19:06 77° WSW 05:24:13 10° NNW
IRIDIUM 114 4.4 05:14:56 10° S 05:20:08 83° E 05:25:24 10° N
CBERS-1 4.2 05:16:29 10° NNE 05:21:37 73° ESE 05:26:41 10° S
Cosmos 2285 Rocket 4.0 05:17:36 10° NNW 05:24:01 83° WSW 05:30:26 10° SSE
BREEZE-M DEB (TANK) 2.8 05:23:26 31° WNW 05:24:36 66° N 05:29:52 10° E
BREEZE-M DEB (TANK) 3.1 05:24:35 22° W 05:26:28 53° S 05:33:29 10° ESE
Cosmos 2278 4.2 05:24:16 18° NW 05:28:01 40° WSW 05:33:14 10° S
IRIDIUM 103 4.3 05:24:05 10° S 05:29:18 83° W 05:34:34 10° N
SL-4 R/B 1.3 05:28:33 28° WNW 05:30:09 87° SSW 05:33:19 10° ESE
Cosmos 2151 3.7 05:27:18 10° S 05:31:16 53° E 05:35:16 10° NNE
Cosmos 1758 Rocket 3.5 05:28:37 10° S 05:33:03 87° W 05:37:28 10° N
Cosmos 2026 Rocket 4.3 05:28:22 10° SW 05:34:02 41° WNW 05:39:49 10° N
NOSS 8 (A) 4.1 05:33:11 25° NW 05:34:43 62° SW 05:37:58 10° SSE
CZ-2D R/B 4.2 05:32:14 10° NNE 05:35:16 41° E 05:38:17 10° S
Cosmos 2221 2.6 05:31:40 10° N 05:35:49 72° E 05:39:56 10° SSE
Thor Agena Rocket 3.8 05:34:42 10° NNE 05:39:47 73° ESE 05:44:47 10° S
Cosmos 1238 Rocket 4.2 05:40:13 10° NNE 05:42:41 26° ENE 05:45:09 10° SE
Cosmos 405 Rocket 2.3 05:39:37 10° SSW 05:42:49 52° WNW 05:46:03 10° N
Cosmos 1707 2.9 05:43:19 10° N 05:46:26 56° ENE 05:49:30 10° SSE
IRIDIUM 106 4.4 05:42:31 10° SSW 05:47:40 59° W 05:52:50 10° N
Cosmos 158 Rocket 4.0 05:43:16 10° SSW 05:48:35 70° WNW 05:53:49 10° NNE
KORONAS-FOTON 3.7 05:50:39 10° N 05:54:02 74° E 05:57:23 10° SSE
Cosmos 1626 Rocket 3.9 05:51:54 10° SSW 05:56:07 43° WNW 06:00:21 10° N
Cosmos 2360 Rocket 2.7 05:51:23 10° NW 05:56:38 41° WSW 06:01:49 10° S
S3M 4.0 05:50:27 10° N 05:56:41 87° E 06:02:50 10° S
Cosmos 2333 Rocket 3.2 05:53:02 11° NW 05:57:42 28° WSW 06:02:30 10° SSW
Cosmos 1553 Rocket 4.3 05:52:05 10° NNW 05:58:09 47° W 06:04:14 10° SSW
SMAP 3.0 05:55:28 10° N 06:00:09 76° WNW 06:04:47 10° SSW
Cosmos 1833 4.2 05:55:00 10° SW 06:00:37 71° WNW 06:06:21 10° NNE
SL-08 R/B 4.0 05:58:16 10° SSE 06:02:45 54° ENE 06:07:20 10° N
Cosmos-2242 4.4 06:00:48 10° NW 06:03:41 18° W 06:06:32 10° SW
Cosmos 1842 3.2 06:01:21 10° N 06:04:40 68° E 06:07:58 10° SSE
Landsat 7 3.7 06:00:45 10° NNE 06:05:26 82° WNW 06:10:05 10° SSW
COSMO-SKYMED 1 4.3 06:05:01 10° WSW 06:06:51 13° W 06:08:41 10° WNW
Cosmos 2237 Rocket 3.7 06:02:33 10° NNW 06:07:28 30° NE 06:12:23 10° ESE
Cosmos 1125 Rocket 3.5 06:03:23 10° NNW 06:08:38 72° WSW 06:13:48 10° SSE
ATLAS 3B R/B 3.3 06:02:40 10° NW 06:10:32 65° NE 06:18:00 10° SE
Meteor 1-10 Rocket 4.4 06:04:58 10° NNW 06:10:53 76° W 06:16:48 10° S
BREEZE-M DEB (TANK) 3.9 06:09:23 10° SW 06:11:38 41° SSE 06:14:50 10° ENE
Cosmos 2219 Rocket 2.5 06:08:45 10° NW 06:14:11 49° WSW 06:19:34 10° S
Meteor 1-19 Rocket 4.4 06:10:31 10° NNW 06:16:15 64° W 06:22:06 10° S
Cosmos 2322 Rocket 3.3 06:15:15 10° NW 06:19:46 25° WSW 06:24:15 10° SSW
BREEZE-M DEB (TANK) 3.8 06:06:01 10° W 06:21:43 79° N 06:25:43 10° E
